Flag for Austria Weather past 2 weeks in Tulln an der Donau, Lower Austria, Austria

Now
48 °F

Fog.


Feels Like: 48 °F
Forecast: 44 / 79 °F
Wind: 2 mph from Southwest

Location: Tulln Airport

Current Time: Aug 28, 2014 at 7:59:37 AM

Latest Report: Aug 28, 2014 at 6:50 AM


Visibility: 19 mi

Pressure: 30.12 "Hg

Humidity: 100%

Dew point: 48 °F

Location of Tulln an der DonauLocation

Historic Weather in Tulln an der Donau — Graph

°F

Tulln an der Donau temperature yesterday

Maximum temperature yesterday: 70 °F (at 10:50 AM)
Minimum temperature yesterday: 55 °F (at 10:50 PM)
Average temperature yesterday: 62 °F

Past Weeks' High & Low Weather Summary

 TemperatureHumidityPressure
High81 °F (Aug 18, 2:50 PM)100% (Aug 19, 7:50 AM)30.12 "Hg (Aug 19, 7:50 AM)
Low48 °F (Aug 25, 5:50 AM)34% (Aug 18, 4:50 PM)29.68 "Hg (Aug 13, 7:50 PM)
Average63 °F74%29.96 "Hg
* Reported Aug 13 7:50 AM — Aug 28 6:50 AM, Tulln an der Donau, Weather by CustomWeather, © 2014

Note: Actual official high and low records may vary slightly from our data, if they occured in-between our weather recording intervals... More about our weather records

Advertising

Tulln an der Donau weather history for previous 24 hours

 ConditionsComfort  
Time TempWeatherWind HumidityBarometerVisibility
6:50 AM
Aug 28
48 °FFog.2 mph100%30.12 "Hg19 mi
5:50 AM50 °FFog.3 mph94%30.12 "Hg19 mi
10:50 PM
Aug 27
55 °FPassing clouds.7 mph94%30.07 "Hg12 mi
9:50 PM57 °FPassing clouds.8 mph88%30.07 "Hg16 mi
8:50 PM59 °FPassing clouds.9 mph82%30.04 "Hg16 mi
7:50 PM61 °FScattered clouds.8 mph72%30.01 "Hg19 mi
6:50 PM63 °FScattered clouds.8 mph68%30.01 "Hg19 mi
5:50 PM64 °FBroken clouds.7 mph60%29.98 "Hg22 mi
4:50 PM64 °FBroken clouds.6 mph60%29.98 "Hg22 mi
3:50 PM63 °FPartly sunny.13 mph64%29.98 "Hg16 mi
2:50 PM59 °FBroken clouds.10 mph82%29.95 "Hg12 mi
1:50 PM64 °FBroken clouds.8 mph68%29.92 "Hg19 mi
12:50 PM63 °FBroken clouds.8 mph77%29.92 "Hg19 mi
11:50 AM63 °FBroken clouds.16 mph77%29.86 "Hg19 mi
10:50 AM70 °FSprinkles. Broken clouds.25 mph60%29.80 "Hg12 mi
9:50 AM68 °FScattered clouds.17 mph78%29.77 "Hg19 mi
8:50 AM63 °FPartly sunny.2 mph88%29.80 "Hg9 mi
7:50 AM61 °FCool.2 mph94%29.77 "Hg6 mi
Weather by CustomWeather, © 2014

See weather overviewHow to use our weather pages